Location: Caltech
(34.1382°N, 118.1253°W)
Time: 11:38:08
(UTC-07:00)

Oscar 19 - Visible Passes

Search period start: 30 April 2017 00:00
Search period end: 10 May 2017 00:00
Orbit: 774 x 790 km, 98.6° (Epoch: 28 April)

Date Brightness Start Highest point End Pass type
(mag) Time Alt. Az. Time Alt. Az. Time Alt. Az.
30 Apr 12.0 02:42:30 10° N 02:45:24 33° N 02:45:24 33° N visible
01 May 12.4 02:10:41 10° NNE 02:13:16 29° NNE 02:13:16 29° NNE visible
01 May 12.7 03:52:03 10° NW 03:53:50 13° NW 03:53:50 13° NW visible
02 May 13.0 01:39:25 10° NE 01:41:08 19° NE 01:41:08 19° NE visible
02 May 12.2 03:18:46 10° NNW 03:21:42 24° NW 03:21:42 24° NW visible
03 May 11.9 02:46:24 10° N 02:49:34 36° NNW 02:49:34 36° NNW visible
04 May 12.1 02:14:32 10° NNE 02:17:26 33° NNE 02:17:26 33° NNE visible
04 May 12.8 03:56:16 10° NW 03:57:59 12° WNW 03:57:59 12° WNW visible
05 May 12.8 01:43:11 10° NE 01:45:18 21° NE 01:45:18 21° NE visible
05 May 12.2 03:22:44 10° NNW 03:25:51 24° NW 03:25:51 24° NW visible
06 May 13.4 01:12:48 10° ENE 01:13:09 11° ENE 01:13:09 11° ENE visible
06 May 11.7 02:50:18 10° N 02:53:43 37° NNW 02:53:43 37° NNW visible
07 May 11.9 02:18:23 10° NNE 02:21:34 38° NNE 02:21:34 38° NNE visible
07 May 12.8 04:00:36 10° NW 04:02:08 11° WNW 04:02:08 11° WNW visible
08 May 12.6 01:46:58 10° NNE 01:49:26 24° NE 01:49:26 24° NE visible
08 May 12.2 03:26:44 10° NNW 03:30:00 23° NW 03:30:00 23° NW visible
09 May 13.2 01:16:24 10° NE 01:17:17 13° ENE 01:17:17 13° ENE visible
09 May 11.6 02:54:13 10° N 02:57:51 38° NNW 02:57:51 38° NNW visible
